Regional Weather Roundup
Issued by NWS

Home | Current Version | Previous Version | Graphics & Text | Print | Product List | Glossary On
Versions: 1 2 3 4 5 6 7 8 9 10 11 12 13 14 15 16 17 18 19 20 21 22 23 24 25 26 27 28 29 30 31 32 33 34 35 36 37 38 39 40 41 42 43 44 45 46 47 48 49 50
000
ASUS43 KIND 211700
RWRIN

WEATHER ROUNDUP FOR INDIANA
NATIONAL WEATHER SERVICE INDIANAPOLIS IN
100 PM EDT FRI JUL 21 2017

NOTE: "FAIR" INDICATES FEW OR NO CLOUDS BELOW 12,000 FEET WITH NO
SIGNIFICANT WEATHER AND/OR OBSTRUCTIONS TO VISIBILITY.

* - STATION DOES NOT REPORT WEATHER SUCH AS PRECIPITATION OR FOG.

+ - STATION NOT QUALITY CONTROLLED BY THE NATIONAL WEATHER SERVICE.
    USE DATA WITH CAUTION...ESPECIALLY DEWPOINT AND RELATIVE
    HUMIDITY OBSERVATIONS.

INZ001>003-010>013-019-020-211800-
NORTHWEST INDIANA

CITY           SKY/WX    TMP DP  RH WIND       PRES   REMARKS
GARY /AIRPORT/ PTSUNNY   84  70  61 VRB6      30.01S
MICHIGAN CITY+ MOSUNNY   84  66  54 CALM      30.02F
MONTICELLO +   CLOUDY    79  74  83 W5        30.03R
RENSSELAER +   CLOUDY    79  72  78 CALM      30.03S

$$

LMZ046-743>745-211800-
SOUTHERN LAKE MICHIGAN

STATION/POSITION TIME  TEMP    WIND        PRES    WAVE
                       AIR SEA DIR/SP/G            HT
                 (UTC) (F)     (DEG/KT/KT) (MB)    (FT)
BURNS HARBOR     1640   76      30/  5/  6 1016.6R
MICHIGAN CITY    1630   78     330/  6/  7   N/A
5NW MICH CITY    1650   76 76   10/  4/  4   N/A     0

$$

INZ004-005-014>016-021>024-211800-
NORTH CENTRAL INDIANA

CITY           SKY/WX    TMP DP  RH WIND       PRES   REMARKS
ELKHART        SUNNY     82  61  47 E5        30.03R
GOSHEN         CLOUDY    83  66  56 N5        30.03R
PERU/GRISSOM   CLOUDY    80  74  79 W5        30.02R
SOUTH BEND     MOSUNNY   83  66  56 CALM      30.02R
WARSAW +       MOSUNNY   81  66  61 CALM      30.04R

$$

INZ006>009-017-018-025>027-211800-
NORTHEAST INDIANA

CITY           SKY/WX    TMP DP  RH WIND       PRES   REMARKS
FORT WAYNE     PTSUNNY   83  67  58 CALM      30.02R
KENDALLVILLE + MOSUNNY   82  70  67 NE7       30.02S

$$

INZ028-029-035-036-043>045-051>053-211800-
WEST CENTRAL INDIANA

CITY           SKY/WX    TMP DP  RH WIND       PRES   REMARKS
GREENCASTLE +  MOSUNNY   86  70  58 CALM      30.04R
LAFAYETTE      MOSUNNY   81  73  76 NW8       30.02R
TERRE HAUTE    SUNNY     91  76  61 S12       30.00S HX 103

$$

INZ030>032-037>040-046>048-054>057-064-065-211800-
CENTRAL INDIANA

CITY           SKY/WX    TMP DP  RH WIND       PRES   REMARKS
ANDERSON       SUNNY     79  72  78 W5        30.04R
COLUMBUS       MOSUNNY   82  72  69 SE9       30.03S
FRANKFORT +    MOSUNNY   83  73  72 SW5       30.05S
GREENWOOD *+   CLOUDY    82  69  64 S5        30.04R
INDIANAPOLIS   MOSUNNY   83  72  69 CALM      30.03R
-EAGLE CREEK   SUNNY     84  70  62 CALM      30.03R
KOKOMO +       CLOUDY    81  70  69 VRB5      30.04R
MT COMFORT *+  CLOUDY    77  70  78 SW5       30.04R
SHELBYVILLE    CLOUDY    83  70  64 S6        30.02S

$$

INZ033-034-041-042-049-050-058-059-211800-
EAST CENTRAL INDIANA

CITY           SKY/WX    TMP DP  RH WIND       PRES   REMARKS
MUNCIE         CLOUDY    79  71  76 SW7       30.03R
RICHMOND +     PTSUNNY   73  70  88 SW8       30.06S FOG

$$

INZ060-061-067>069-081>083-085>088-211800-
SOUTHWEST INDIANA

CITY           SKY/WX    TMP DP  RH WIND       PRES   REMARKS
EVANSVILLE     SUNNY     93  76  57 SE6       30.01S HX 105
HUNTINGBURG *+ SUNNY     89  80  74 SE12      30.02S HX 106

$$

INZ062-063-066-070>080-084-089>092-211800-
SOUTH CENTRAL AND SOUTHEAST INDIANA

CITY           SKY/WX    TMP DP  RH WIND       PRES   REMARKS
BLOOMINGTON    MOSUNNY   90  71  53 SE7       30.02S HX  96
MADISON *+     MOSUNNY   88  72  58 SE6       30.05S
SEYMOUR +      MOSUNNY   88  75  66 S3        30.01F HX  97

$$





USA.gov is the U.S. government's official web portal to all federal, state and local government web resources and services.